Home > Weather > Florianópolis > Past weeks

Flag for Brazil Past Weather in Florianópolis, Santa Catarina, Brazil — Yesterday and Last 2 Weeks

Now
64 °F

Clear.


Feels Like: 64 °F
Forecast: 61 / 77 °F
Wind: 13 mph from North

Location: Florianopolis Aeroporto

Current Time: Aug 27, 2016 at 5:30:38 AM

Latest Report: Aug 27, 2016 at 5:00 AM


Visibility: 10 mi

Pressure: 30.04 "Hg

Humidity: 88%

Dew Point: 61 °F

Location of FlorianópolisLocation

Past Weather in Florianópolis — Graph

°F

Florianópolis Temperature Yesterday

Maximum temperature yesterday: 72 °F (at 1:00 PM)
Minimum temperature yesterday: 61 °F (at 6:00 AM)
Average temperature yesterday: 66 °F

High & Low Weather Summary for the Past Weeks

 TemperatureHumidityPressure
High79 °F (Aug 16, 12:00 PM)100% (Aug 14, 2:00 AM)30.36 "Hg (Aug 14, 2:00 AM)
Low46 °F (Aug 22, 7:00 AM)35% (Aug 23, 3:00 PM)29.71 "Hg (Aug 15, 4:00 PM)
Average62 °F83%30.05 "Hg
* Reported Aug 12 4:00 AM — Aug 27 4:00 AM, Florianópolis, Weather by CustomWeather, © 2016

Note: Actual official high and low records may vary slightly from our data, if they occured in-between our weather recording intervals... More about our weather records

Advertising

Florianópolis Weather History for the Previous 24 Hours

Scroll right to see more
 ConditionsComfort  
Time TempWeatherWind HumidityBarometerVisibility
4:00 AM
Sat, Aug 27
64 °FClear.14 mph88%30.04 "Hg10 mi
3:00 AM64 °FClear.13 mph88%30.04 "Hg10 mi
2:00 AM63 °FClear.9 mph94%30.04 "Hg10 mi
1:00 AM64 °FClear.12 mph94%30.07 "Hg10 mi
12:00 AM64 °FClear.10 mph94%30.07 "Hg10 mi
11:00 PM
Fri, Aug 26
64 °FClear.12 mph94%30.07 "Hg10 mi
10:00 PM64 °FClear.7 mph94%30.07 "Hg10 mi
9:00 PM64 °FClear.13 mph94%30.07 "Hg10 mi
8:00 PM66 °FClear.12 mph88%30.07 "Hg10 mi
7:00 PM66 °FClear.15 mph88%30.04 "Hg10 mi
6:00 PM68 °FClear.14 mph83%30.01 "Hg10 mi
5:00 PM70 °FClear.12 mph83%30.01 "Hg10 mi
4:00 PM72 °FSunny.13 mph78%30.01 "Hg10 mi
3:00 PM72 °FSunny.15 mph78%30.01 "Hg10 mi
2:00 PM72 °FSunny.15 mph78%30.01 "Hg10 mi
1:00 PM72 °FPassing clouds.15 mph73%30.04 "HgN/A
12:00 PM70 °FScattered clouds.15 mph78%30.07 "HgN/A
11:00 AM68 °FScattered clouds.15 mph83%30.09 "HgN/A
10:00 AM66 °FPartly sunny.13 mph88%30.12 "HgN/A
9:00 AM63 °FPartly sunny.10 mph100%30.12 "HgN/A
8:00 AM61 °FScattered clouds.6 mph100%30.12 "HgN/A
7:00 AM61 °FScattered clouds.6 mph94%30.09 "HgN/A
6:00 AM61 °FPartly sunny.8 mph100%30.09 "HgN/A
5:00 AM63 °FPassing clouds.6 mph94%30.07 "HgN/A
Weather by CustomWeather, © 2016

See weather overviewHow to use our weather pages